Location: Holcomb Observatory
(44.4922°N, 73.1654°W)
Time: 02:48:20
(UTC-04:00)

Daily predictions for brighter satellites

Satellite Brightness Start Highest point End
(mag) Time Altitude Azimuth Time Altitude Azimuth Time Altitude Azimuth
Okean 2 Rocket 3.5 00:05:30 53° W 00:05:48 54° WNW 00:10:10 10° N
Cosmos 1980 Rocket 4.1 00:06:32 16° E 00:06:32 16° E 00:09:15 10° ENE
Cosmos 405 Rocket 4.2 00:03:05 10° NNW 00:05:53 29° WNW 00:05:53 29° WNW
Lacrosse 5 rocket 4.2 00:08:22 10° NW 00:10:43 16° NNW 00:13:09 10° NNE
Cosmos 2266 Rocket 3.9 00:16:55 59° SSE 00:18:07 78° E 00:24:16 10° N
Okean 1 Rocket 4.0 00:22:06 38° ENE 00:22:06 38° ENE 00:25:30 10° NNE
ISS -1.3 00:20:17 10° WNW 00:22:56 22° N 00:25:36 10° NE
Cosmos 2315 Rocket 4.1 00:17:44 10° N 00:23:54 63° ENE 00:25:09 52° SE
BREEZE-M DEB (TANK) 4.5 00:11:38 10° WNW 00:26:27 51° SW 00:27:12 48° SSW
Cosmos 2297 Rocket 2.0 00:27:02 10° NNW 00:32:42 78° WSW 00:33:14 71° SSW
Cosmos 1371 Rocket 3.8 00:32:35 80° SSE 00:32:46 82° ESE 00:38:01 10° NNE
Cosmos 1697 Rocket 3.1 00:33:16 45° ESE 00:33:16 45° ESE 00:38:28 10° NE
Cosmos 1190 Rocket 3.9 00:33:27 10° NNW 00:38:41 78° ENE 00:39:01 74° ESE
BREEZE-M DEB 4.0 00:41:45 10° WNW 00:45:21 36° NW 00:45:21 36° NW
CZ-4C R/B 3.4 00:41:02 10° NNW 00:47:55 56° NE 00:52:58 22° ESE
ALOS 2 3.4 00:49:15 43° WNW 00:49:15 43° WNW 00:52:56 10° NNW
SL-16 R/B 4.4 00:48:31 12° E 00:48:42 12° E 00:50:51 10° ENE
Cosmos 676 Rocket 4.3 00:44:06 10° NNW 00:49:17 59° ENE 00:49:57 54° E
Cosmos 1025 Rocket 3.4 00:46:26 10° N 00:50:17 60° NE 00:50:17 60° NE
BREEZE M DEB (TANK) 4.4 00:48:29 10° WNW 00:50:51 24° NW 00:50:51 24° NW
BREEZE-M (TANK) 3.1 00:46:55 10° WNW 00:54:45 61° N 00:55:06 58° NE
USA 229 DEB 3.6 00:54:43 58° S 00:55:59 72° ESE 01:02:55 10° NE
USA 229 3.6 00:54:52 59° S 00:56:05 71° ESE 01:03:01 10° NE
Cosmos 2082 4.1 00:50:57 10° NW 00:56:28 49° WSW 00:56:36 49° WSW
Cosmos 2322 Rocket 4.2 00:56:46 15° E 00:57:02 15° E 01:00:06 10° ENE
Cosmos 1624 Rocket 4.0 00:56:42 69° WSW 00:57:11 75° WNW 01:02:34 10° NNE
Cosmos 2278 4.0 00:58:41 49° WSW 00:59:56 61° WNW 01:05:36 10° NNE
CZ-2C R/B 4.2 01:00:41 30° W 01:00:42 30° W 01:05:05 10° NW
Cosmos 407 Rocket 3.4 00:56:00 10° NNW 01:01:21 76° WSW 01:01:29 76° SW
Cosmos 1244 Rocket 4.4 01:00:31 62° SSE 01:01:36 79° E 01:07:52 10° N
H-2A R/B 4.3 00:58:45 10° NE 01:01:05 21° ENE 01:01:05 21° ENE
Cosmos 1140 Rocket 3.9 00:59:35 10° NNW 01:04:41 55° ENE 01:05:29 49° E
Nadezhda 2 Rocket 4.4 01:06:29 60° SW 01:07:34 74° W 01:13:41 10° N
ATLAS CENTAUR R/B 3.9 01:09:13 10° WNW 01:11:33 15° NW 01:13:54 10° N
Genesis I 4.0 01:10:16 10° NNW 01:13:36 50° NNE 01:13:36 50° NNE
Cosmos 1238 Rocket 3.7 01:10:45 10° N 01:15:57 75° E 01:16:44 64° SE
Cosmos 921 Rocket 3.3 01:16:36 62° NNW 01:16:36 62° NNW 01:20:20 10° NNE
BREEZE M DEB (TANK) 4.3 01:18:13 41° ESE 01:18:13 41° ESE 01:20:51 10° ENE
Okean 2 3.9 01:13:25 10° NNW 01:16:46 55° NNW 01:16:46 55° NNW
Nadezhda 1 Rocket 4.3 01:13:40 10° N 01:19:41 57° ENE 01:21:19 44° SE
Cosmos 1892 Rocket 3.9 01:15:47 10° N 01:20:04 62° ENE 01:20:04 62° ENE
GP-B 4.1 01:16:30 10° NNW 01:20:22 37° WNW 01:20:22 37° WNW
Cosmos 1689 Rocket 4.2 01:22:59 29° N 01:22:59 29° N 01:24:44 10° N
Cosmos 2227 Rocket 3.5 01:17:03 10° NW 01:21:18 25° W 01:21:18 25° W
CZ-2C R/B 4.0 01:17:25 10° N 01:21:44 27° WNW 01:23:17 24° W
Cosmos 1066 Rocket 4.4 01:18:54 10° N 01:24:16 59° ENE 01:25:07 52° ESE
Cosmos 1536 4.4 01:27:01 27° WNW 01:27:01 27° WNW 01:30:11 10° NNW
CZ-4B R/B 2.9 01:28:01 38° NNW 01:28:01 38° NNW 01:30:17 10° NNW
Cosmos 2056 Rocket 4.2 01:27:06 40° W 01:27:55 44° WNW 01:32:50 10° N
Landsat 5 4.0 01:29:26 49° NNW 01:29:26 49° NNW 01:32:20 10° NNW
Cosmos 1954 Rocket 3.9 01:24:49 10° NNW 01:30:05 77° WSW 01:30:15 76° SW
Cosmos 1656 4.5 01:33:34 34° W 01:35:04 42° WNW 01:40:20 10° NNE
Mayak 0.1 01:32:59 10° N 01:36:39 30° WNW 01:36:39 30° WNW
Cosmos 2263 Rocket 3.6 01:33:51 10° N 01:39:01 34° NE 01:43:22 14° ESE
NOSS 3-1 (C) 3.3 01:45:01 61° S 01:45:54 71° ESE 01:52:23 10° NE
SL-16 R/B 4.4 01:43:05 10° ESE 01:48:02 25° ENE 01:53:00 10° N
Cosmos 1461 3.1 01:44:11 10° NNW 01:48:32 72° NE 01:48:34 72° ENE
Cosmos 2360 Rocket 4.2 01:47:14 14° ESE 01:48:45 16° E 01:51:59 10° ENE
Cosmos 1980 Rocket 2.1 01:48:17 61° SW 01:49:13 77° WNW 01:54:53 10° NNE
Lacrosse 5 rocket 4.5 01:49:20 10° NNW 01:51:16 13° N 01:53:16 10° NE
Cosmos 1544 Rocket 3.5 01:53:00 79° NW 01:53:00 79° NW 01:57:17 10° N
BREEZE-M DEB (TANK) 3.2 01:52:59 39° N 01:53:04 39° N 01:57:51 10° ENE
Cosmos 1452 Rocket 3.6 01:53:21 56° WSW 01:54:05 62° WNW 01:59:21 10° NNE
Cosmos 1743 3.3 01:55:02 54° NE 01:55:02 54° NE 01:58:19 10° NNE
Cosmos 1745 Rocket 4.0 01:58:16 54° SW 01:59:39 72° W 02:05:49 10° N
ISS -2.0 01:57:04 10° NW 02:00:04 32° NNE 02:03:03 10° E
USA 81 4.0 01:54:55 10° N 02:00:14 79° E 02:01:08 61° SSE
Cosmos 1500 4.4 02:03:46 35° NW 02:03:46 35° NW 02:06:45 10° N
Cosmos 1850 Rocket 3.9 01:58:19 10° NNW 02:03:41 82° WSW 02:04:27 66° S
Cosmos 1455 Rocket 3.2 02:09:22 62° WNW 02:09:22 62° WNW 02:13:38 10° N
Cosmos 614 Rocket 4.3 02:05:38 10° NNW 02:10:17 47° W 02:10:17 47° W
Cosmos 2297 Rocket 4.4 02:14:31 10° W 02:15:01 10° W 02:15:01 10° W
Cosmos 1697 Rocket 4.0 02:14:58 23° W 02:17:15 30° NW 02:22:12 10° N
Cosmos 1437 Rocket 2.9 02:18:54 67° E 02:18:55 67° E 02:23:01 10° NNE
Cosmos 1975 3.9 02:20:34 34° WNW 02:20:34 34° WNW 02:24:04 10° N
USA 234 3.3 02:15:00 10° NE 02:21:31 66° SE 02:23:38 44° SSW
PSLV R/B 3.9 02:21:26 71° SE 02:21:48 79° ENE 02:26:02 10° N
Cosmos 1420 Rocket 4.4 02:22:09 43° WSW 02:23:12 50° WNW 02:28:16 10° NNE
Meteor 1-21 4.1 02:20:46 10° NNW 02:26:23 86° W 02:27:59 49° S
Cosmos 839 Rocket 4.4 02:27:30 34° WSW 02:30:04 56° NW 02:36:13 10° NNE
Meteor 1-4 Rocket 4.3 02:30:33 23° ESE 02:30:58 24° E 02:33:52 10° NE
SL-16 R/B 2.1 02:30:23 51° SSW 02:31:53 85° ESE 02:37:36 10° NNE
CZ-4C R/B 3.4 02:29:48 10° NW 02:36:30 41° WSW 02:38:04 37° SW
Meteor 2-9 Rocket 4.3 02:35:18 42° S 02:37:21 77° E 02:43:14 10° NNE
PSLV R/B 4.5 02:32:55 10° N 02:37:24 42° WNW 02:38:14 38° W
H-2A R/B 3.6 02:33:59 10° N 02:37:32 30° WNW 02:37:42 30° WNW
ADEOS Rocket 3.1 02:33:11 10° NNE 02:39:29 68° E 02:41:50 37° S
Cosmos 2322 Rocket 2.1 02:38:35 48° SSW 02:40:17 83° WNW 02:46:03 10° NNE
Cosmos 1602 Rocket 3.7 02:37:41 10° NNW 02:42:02 53° W 02:42:12 52° WSW
SL-08 R/B 3.2 02:43:22 48° SSE 02:44:41 88° ENE 02:49:19 10° NNW
Cosmos 44 3.4 02:41:06 10° NNW 02:45:27 65° NE 02:48:56 16° SE
ATLAS 2AS CENTAUR R/B 4.0 02:43:40 22° SSE 02:47:45 37° ESE 02:54:59 10° NE
ARIANE 5 R/B 3.7 02:43:55 10° NNE 02:48:38 36° E 02:51:21 22° SSE
Helios 1A Rocket 3.0 02:47:06 10° N 02:51:05 58° WNW 02:51:30 54° W
Cosmos 1666 3.5 02:51:40 37° WNW 02:51:40 37° WNW 02:55:15 10° N
COBE Rocket 4.0 02:46:28 10° NNE 02:51:40 89° ESE 02:53:25 43° SSW
NOSS 3-1 (A) 3.7 02:50:00 33° WSW 02:52:39 61° NW 02:59:15 10° NNE
Resurs 1-4 Rocket 2.8 02:47:46 10° NNE 02:52:50 46° E 02:55:27 26° SSE
IRS-1C 4.2 02:50:35 10° NNE 02:55:56 72° ESE 02:58:10 36° S
Cosmos 1331 Rocket 3.9 02:58:37 44° SSW 03:00:18 87° WNW 03:05:31 10° NNE
AQUA 3.7 02:56:38 10° NNE 03:01:26 88° WNW 03:03:00 43° SSW
Cosmos 1726 Rocket 4.1 03:00:47 32° SSE 03:02:31 53° E 03:06:50 10° NNE
SL-8 R/B 4.1 03:05:51 40° S 03:06:50 46° SE 03:11:28 10° ENE
CBERS-1 4.1 03:07:39 10° N 03:12:45 64° WNW 03:14:46 36° SW
NPP 3.8 03:09:38 10° N 03:14:57 59° WNW 03:17:13 33° SW
MOS 1 Rocket 4.0 03:11:27 10° NNE 03:15:48 44° E 03:18:18 22° SSE
CZ-2D R/B 2.3 03:10:44 10° NNE 03:16:15 73° ESE 03:19:19 27° S
ATLAS 3B R/B 3.6 03:10:17 10° NNW 03:16:53 49° NE 03:23:12 10° ESE
Cosmos 1606 Rocket 3.5 03:15:26 39° S 03:17:03 89° W 03:21:32 10° N
Cosmos 1486 Rocket 3.9 03:15:00 10° NNW 03:20:20 84° WSW 03:24:38 16° SSE
UNK 3.7 03:19:05 30° S 03:21:20 73° WSW 03:25:59 10° NNW
DELTA 2 R/B (1) 4.2 03:19:49 32° SSW 03:21:23 39° SSE 03:26:31 10° E
Cosmos 2263 Rocket 2.7 03:17:44 10° NW 03:23:01 40° WSW 03:24:59 30° SSW
Cosmos 1271 Rocket 3.9 03:24:17 18° SSE 03:26:47 39° E 03:30:32 10° NNE
CBERS 1 LM4 rocket 4.3 03:23:04 10° NNE 03:27:51 85° ESE 03:30:28 28° SSW
Cosmos 44 Rocket 3.5 03:26:35 10° NW 03:31:05 45° WSW 03:33:18 26° S
SL-16 R/B 2.6 03:26:51 21° S 03:31:11 62° WSW 03:37:25 10° NNW
Lacrosse 5 rocket 3.4 03:28:04 10° NNW 03:31:32 29° NNE 03:35:10 10° E
UNKNOWN OBJECT B 3.7 03:27:56 10° NNE 03:31:36 43° E 03:34:04 19° SSE
Cosmos 2360 Rocket 2.2 03:29:01 29° SSW 03:32:00 79° WNW 03:37:41 10° NNE
NOSS 2-3 (C) 3.9 03:30:39 31° SSW 03:33:00 81° SE 03:38:35 10° NE
Cosmos 1354 Rocket 4.3 03:28:17 10° NNW 03:33:35 68° ENE 03:38:52 10° SSE
Cosmos 1980 Rocket 4.4 03:30:58 10° WNW 03:34:12 15° NW 03:37:28 10° N
Cosmos 2219 Rocket 3.6 03:31:08 11° SSE 03:35:57 32° ESE 03:40:55 10° NE
ISS -3.8 03:33:28 10° WNW 03:36:39 53° SW 03:39:51 10° SE
COSMOS 2428 3.2 03:34:05 19° S 03:38:04 55° ESE 03:43:39 10° NNE
Cosmos 1825 Rocket 4.2 03:34:23 10° NNW 03:38:29 38° W 03:39:51 30° SW
Iridium 4 Rocket 3.7 03:35:51 22° S 03:39:46 75° W 03:45:24 10° N
Cosmos 1758 Rocket 3.8 03:36:03 10° NNW 03:40:15 49° W 03:42:05 29° SSW
Cosmos 2237 Rocket 4.4 03:36:44 10° SE 03:40:34 19° E 03:44:25 10° ENE
USA 238 DEB 4.4 03:33:37 10° NNW 03:40:38 59° NE 03:47:39 10° SE
USA 238 4.5 03:33:44 10° NNW 03:40:44 58° NE 03:47:45 10° SE
Cosmos 1844 Rocket 3.0 03:37:43 10° NNW 03:43:23 70° ENE 03:49:03 10° SSE
Cosmos 2184 Rocket 4.2 03:42:25 24° SSW 03:46:09 55° WNW 03:52:13 10° N
Cosmos 2228 3.0 03:50:08 24° SSW 03:52:35 69° W 03:56:53 10° N
Cosmos 2333 Rocket 3.4 03:51:48 10° S 03:57:01 38° ESE 04:02:13 10° NE
Cosmos 1302 Rocket 4.4 03:54:06 22° SW 03:57:18 50° WNW 04:02:28 10° NNE
ADEOS 3.7 03:52:36 10° N 03:57:46 63° WNW 04:01:27 19° SSW
Cosmos 2322 3.9 03:54:10 22° SW 03:57:52 61° WNW 04:03:29 10° NNE
IRS-1D 4.0 03:56:53 10° N 04:01:35 45° WNW 04:04:48 19° SW
Meteor 2-5 Rocket 3.8 03:56:54 10° NNW 04:02:29 61° W 04:08:07 10° S
USA 234 4.0 03:58:09 10° NE 04:04:23 48° NNW 04:10:36 10° W
Meteor 1-4 Rocket 4.1 04:04:51 17° W 04:06:04 20° WNW 04:08:49 10° NNW
Meteor 1-24 Rocket 3.6 04:01:35 10° N 04:07:01 89° W 04:12:35 10° S
BREEZE-M DEB (TANK) 3.3 04:05:02 10° WNW 04:08:36 33° N 04:10:46 10° ENE
Cosmos 2278 Rocket 3.4 04:04:32 10° NNW 04:10:01 47° ENE 04:15:28 10° SE
Cosmos 1707 3.6 04:07:14 10° NNW 04:10:41 31° W 04:12:43 19° SW
NOSS 2-3 (D) 4.3 04:08:09 18° WSW 04:11:40 56° NW 04:17:16 10° NNE
Cosmos 972 Rocket 3.9 04:08:18 17° SSW 04:12:02 71° WNW 04:17:04 10° NNE
Cosmos 1503 Rocket 4.1 04:07:28 10° NNW 04:12:40 57° WSW 04:17:52 10° S
Cosmos 1378 3.8 04:10:03 10° NNW 04:13:29 35° W 04:15:47 18° SSW
Nadezhda 3 Rocket 4.1 04:07:51 10° NNW 04:13:57 58° W 04:20:05 10° S
SL-16 R/B 4.1 04:12:49 10° W 04:16:45 19° NW 04:20:42 10° N
Cosmos 1766 3.2 04:14:25 13° S 04:17:54 83° W 04:21:52 10° N
Cosmos 2058 Rocket 4.0 04:15:38 17° SW 04:18:30 34° WNW 04:22:37 10° N
Intercosmos 24 4.1 04:15:17 14° SSW 04:18:39 74° W 04:23:55 10° N
Cosmos 962 Rocket 4.5 04:15:00 10° SSW 04:21:05 73° W 04:27:14 10° N
GENESIS II 4.2 04:17:20 10° NW 04:21:15 60° WSW 04:25:04 10° SSE
SL-8 Rocket 4.3 04:15:03 10° S 04:21:19 73° E 04:27:38 10° NNE
OAO 3 Rocket 4.3 04:21:52 15° SW 04:24:45 26° S 04:28:50 10° SE
Cosmos 2322 Rocket 4.2 04:21:40 10° W 04:25:16 17° NW 04:28:53 10° N
Cosmos 2333 4.3 04:21:55 13° SW 04:26:58 70° WNW 04:32:40 10° NNE
ATLAS CENTAUR R/B 3.2 04:21:01 10° NW 04:27:36 46° NNE 04:30:23 10° ESE
ARIANE 5 R/B 3.6 04:23:12 10° N 04:27:40 31° WNW 04:31:42 12° WSW
Cosmos 1812 Rocket 3.5 04:24:40 10° S 04:29:02 83° W 04:33:24 10° N
ADEOS II 2.6 04:25:16 10° NNE 04:30:30 62° E 04:35:41 10° S
Resurs 1-4 Rocket 3.4 04:28:08 10° N 04:32:25 26° WNW 04:36:32 11° WSW
Cosmos 1184 Rocket 4.3 04:31:23 10° NW 04:33:53 20° W 04:35:47 13° SW
Cosmos 1844 3.7 04:28:48 10° NNW 04:34:21 62° WSW 04:39:54 10° S
Cosmos 1992 Rocket 4.1 04:29:41 11° SSW 04:34:40 68° WNW 04:39:53 10° NNE
Okean O Rocket 2.7 04:30:28 10° NNE 04:34:46 45° E 04:39:03 10° S
Okean 3 Rocket 4.2 04:32:47 10° N 04:37:12 62° E 04:41:36 10° SSE
Abrixas rocket 4.4 04:35:00 10° S 04:37:19 18° SE 04:39:40 10° E
MOS 1-B 4.4 04:32:17 10° NNE 04:38:08 90° ESE 04:43:57 10° SSW
ATLAS 2AS CENTAUR R/B 3.4 04:31:06 12° SW 04:38:27 62° NW 04:46:34 10° NNE
Cosmos 1674 3.5 04:35:13 10° N 04:39:01 55° E 04:42:48 10° SSE
Lacrosse 5 4.0 04:35:43 10° SSE 04:39:22 20° ESE 04:43:02 10° ENE
NOSS 0 Rocket 4.2 04:34:54 10° SSW 04:41:03 71° ESE 04:47:14 10° NNE
BREEZE M DEB (TANK) 3.6 04:38:43 10° WNW 04:41:21 46° NNE 04:48:09 10° E
USA 161 2.1 04:41:16 10° S 04:44:06 38° W 04:46:52 10° NNW
Cosmos 1727 Rocket 4.3 04:40:15 10° N 04:46:30 75° E 04:52:39 10° SSE
Cosmos 1076 Rocket 4.1 04:44:11 10° N 04:48:24 61° E 04:52:36 10° SSE
Landsat 4 4.0 04:45:34 10° SSE 04:49:15 73° ENE 04:53:00 10° N
SL-8 R/B 4.0 04:44:30 10° W 04:49:20 66° NNW 04:54:10 10° ENE
Cosmos 1340 Rocket 4.0 04:47:06 10° NW 04:50:18 23° W 04:53:28 10° SW
Cosmos 1805 3.4 04:48:11 10° SSW 04:52:02 59° W 04:55:56 10° N
Cosmos 389 Rocket 3.7 04:52:00 10° SW 04:55:03 27° WNW 04:58:11 10° NNW
CZ-2D R/B 3.9 04:52:03 10° NNW 04:55:42 18° WNW 04:59:20 10° W
KORONAS-FOTON 4.5 04:52:44 10° N 04:56:39 62° E 05:00:33 10° SSE
Cosmos 1356 Rocket 3.7 04:56:27 10° NNW 05:00:18 44° W 05:04:06 10° SSW
Meteor 1-21 Rocket 4.3 04:54:52 10° NNW 05:00:39 86° W 05:06:30 10° S
Cosmos 2366 rocket 4.0 04:55:27 10° SSW 05:01:36 77° W 05:07:52 10° N
